This is the latest recevied weather packets stored in our database for station/object N4DLW-3. If no packets are shown the sender has not sent any weather packets the latest 10 day(s).
| Time | Temp. | Humidity | Pressure | Rain* | Wind** | Luminosity | Snow |
|---|---|---|---|---|---|---|---|
| 1777917874 | 29.44° C | 42% | 1015.4 hPa | 0 mm | - | - | - |
| 1777917564 | 29.44° C | 42% | 1015.4 hPa | 0 mm | - | - | - |
| 1777917272 | 29.44° C | 43% | 1015.3 hPa | 0 mm | - | - | - |
| 1777916966 | 30° C | 41% | 1015.5 hPa | 0 mm | - | - | - |
| 1777916673 | 30° C | 42% | 1015.4 hPa | 0 mm | - | - | - |
| 1777916388 | 30° C | 42% | 1015.6 hPa | 0 mm | - | - | - |
| 1777916075 | 30.56° C | 41% | 1015.6 hPa | 0 mm | - | - | - |
| 1777915788 | 30.56° C | 41% | 1015.5 hPa | 0 mm | - | - | - |
| 1777915478 | 30.56° C | 41% | 1015.6 hPa | 0 mm | - | - | - |
| 1777915165 | 31.11° C | 39% | 1015.6 hPa | 0 mm | - | - | - |
| 1777914863 | 31.11° C | 40% | 1015.8 hPa | 0 mm | - | - | - |
| 1777914570 | 31.11° C | 40% | 1015.7 hPa | 0 mm | - | - | - |
| 1777914285 | 30.56° C | 40% | 1015.8 hPa | 0 mm | - | - | - |
| 1777913971 | 31.11° C | 40% | 1015.8 hPa | 0 mm | - | - | - |
| 1777913677 | 30.56° C | 40% | 1015.9 hPa | 0 mm | - | - | - |
| 1777913370 | 30.56° C | 40% | 1016 hPa | 0 mm | - | - | - |
| 1777913078 | 30.56° C | 41% | 1016.1 hPa | 0 mm | - | - | - |
| 1777912772 | 30.56° C | 43% | 1016.2 hPa | 0 mm | - | - | - |
| 1777912477 | 30° C | 43% | 1016.2 hPa | 0 mm | - | - | - |
| 1777912164 | 30.56° C | 41% | 1016.2 hPa | 0 mm | - | - | - |
| 1777911878 | 30.56° C | 40% | 1016.3 hPa | 0 mm | - | - | - |
| 1777911565 | 30.56° C | 43% | 1016.4 hPa | 0 mm | - | - | - |
| 1777911282 | 30° C | 41% | 1016.5 hPa | 0 mm | - | - | - |
| 1777910968 | 30° C | 42% | 1016.5 hPa | 0 mm | - | - | - |
| 1777910682 | 29.44° C | 43% | 1016.6 hPa | 0 mm | - | - | - |
* Rain latest hour (hover to see other rain measurements)
** Current wind speed in m/s (hover to see current wind gust speed)